Orbital Elements at Epoch 2459000.5 (2020-May-31.0) TDB
Reference: JPL 18 (heliocentric ecliptic J2000)
Element | Value | Uncertainty (1-sigma) | Units |
e | .0983134445930402 | 4.6633e-08 | |
a | 2.140780883426491 | 7.1783e-09 | au |
q | 1.930313340657901 | 1.0396e-07 | au |
i | 4.590115956566986 | 4.7828e-06 | deg |
node | 72.11640000506092 | 3.9985e-05 | deg |
peri | 233.1677140439006 | 4.7418e-05 | deg |
M | 298.2265424106366 | 2.6049e-05 | deg |
tp | 2459196.816211040388 (2020-Dec-13.31621104) | 8.285e-05 | TDB |
period | 1144.080948881654 3.13 | 5.7544e-06 1.575e-08 | d yr |
n | .3146630492815233 | 1.5827e-09 | deg/d |
Q | 2.351248426195081 | 7.884e-09 | au |
|
| | Orbit Determination Parameters
Additional Information
|